Regional Weather Roundup
Issued by NWS Sioux Falls, SD

Home | Current Version | Previous Version | Text Only | Print | Product List | Glossary On
Versions: 1 2 3 4 5 6 7 8 9 10 11 12 13 14 15 16 17 18 19 20 21 22 23 24 25 26 27 28 29 30 31 32 33 34 35 36 37 38 39 40 41 42 43 44 45 46 47 48 49 50
670
ASUS43 KFSD 030110
RWRFSD

WEATHER ROUNDUP FOR SE SOUTH DAKOTA/SW MINNESOTA/NW IOWA
NATIONAL WEATHER SERVICE SIOUX FALLS SD
700 PM CST FRI DEC 02 2016

NOTE: "FAIR" INDICATES FEW OR NO CLOUDS BELOW 12,000 FEET WITH NO
SIGNIFICANT WEATHER AND OR OBSTRUCTIONS TO VISIBILITY.


SDZ038>040-050-052>070-030200-
SOUTHEAST SOUTH DAKOTA

CITY           SKY/WX    TMP DP  RH WIND       PRES   REMARKS
BROOKINGS      FLURRIES  26  21  81 NW7       30.28R WCI  18
CHAMBERLAIN    CLEAR     29  29  99 CALM      30.28R
HURON          CLOUDY    29  26  89 NE3       30.30S
MADISON        CLOUDY    27  25  93 NW6       30.28S WCI  20
MITCHELL       CLOUDY    31  26  82 CALM      30.31S
SIOUX FALLS    CLOUDY    30  24  78 N5        30.30R WCI  25
WINNER         FAIR      30  24  78 S7        30.26R WCI  23
YANKTON        CLOUDY    34  27  75 CALM      30.31S
$$

MNZ071-072-080-081-089-090-097-098-030200-
SOUTHWEST MINNESOTA

CITY           SKY/WX    TMP DP  RH WIND       PRES   REMARKS
FAIRMONT       CLOUDY    30  25  81 N5        30.31R WCI  25
JACKSON        CLOUDY    30  23  74 W9        30.29R WCI  22
LUVERNE        CLOUDY    30  23  74 NW7       30.31S WCI  23
MARSHALL       CLOUDY    28  21  75 NW8       30.30S WCI  20
MONTEVIDEO     CLOUDY    28  27  93 CALM      30.32S
PIPESTONE      CLOUDY    28  21  74 NW6       30.27S WCI  22
REDWOOD FALLS  CLOUDY    29  20  69 NW5       30.30S WCI  24
TRACY          CLOUDY    30  25  83 W3        30.29S
WINDOM         CLOUDY    28  25  86 CALM      30.29R
WORTHINGTON    CLOUDY    29  23  78 NW15      30.29S WCI  18
$$

IAZ001>003-012>014-020>022-031-032-NEZ013-014-SDZ071-030200-
NORTHWEST IOWA

CITY           SKY/WX    TMP DP  RH WIND       PRES   REMARKS
CHEROKEE       CLOUDY    33  31  92 CALM      30.31S
DENISON        CLOUDY    36  32  87 CALM      30.31R
ESTHERVILLE    CLOUDY    30  25  81 CALM      30.29R
LE MARS        CLOUDY    34  30  86 NW3       30.33S
ORANGE CITY    CLOUDY    32  30  93 CALM      30.31R
SHELDON        CLOUDY    32  30  93 W6        30.29R WCI  26
SIOUX CITY     CLOUDY    36  31  82 CALM      30.33S
SPENCER        CLOUDY    32  27  81 W12       30.31R WCI  23
STORM LAKE     CLOUDY    32  28  86 CALM      30.30S
$$

ABBREVIATIONS USED IN REMARKS
   TC - TEMPERATURE IN CELSIUS
  WCI - WIND CHILL INDEX
   HX - HEAT INDEX
  VSB - VISIBILITY





USA.gov is the U.S. government's official web portal to all federal, state and local government web resources and services.